Volver al catálogo

YUNYAO-1 47

ActivoMeteoSSO
NORAD 63348·PAYLOAD·🇨🇳 China

Lanzado Mar 21, 2025 desde Jiuquan Satellite Launch Center

Loading…

Próximos Pases (próximas 24 horas)

TLE

ActualizadoSource: Space-Track

Época: Sep 14, 2026, 14:25 UTC

1 63348U 25059E   26257.60134444  .00002646  00000-0  15920-3 0  9991
2 63348  97.6124  78.5893 0015022 206.7800 153.2656 15.11640900 81800

Sigue YUNYAO-1 47 en tiempo real con AllMySat

Download on the App Store